Salon, France

10:56 AM CEST on August 21, 2017 (GMT +0200)
Salon Air Base

Weather History for LFMY - February, 2013

Change the Weather History Date:

Saturday, February 16, 2013

  Actual Average (LFML) Record (LFML)
Temperature  
Mean Temperature 42 °F -  
Max Temperature 57 °F 54 °F 64 °F (2007)
Min Temperature 26 °F 37 °F 26 °F (2003)
Degree Days  
Heating Degree Days 24    
Moisture  
Dew Point 30 °F    
Average Humidity 65    
Maximum Humidity 93    
Minimum Humidity 33    
Precipitation  
Precipitation 0.00 in - - ()
Sea Level Pressure  
Sea Level Pressure 30.09 in    
Wind  
Wind Speed 5 mph ()    
Max Wind Speed 18 mph    
Max Gust Speed -    
Visibility 6.2 miles    
Events      
Averages and records for this station are not official NWS values.
T = Trace of Precipitation, MM = Missing Value Source: Averaged Metar Reports

Daily Weather History Graph

Daily Weather History Graph

Search for Another Location

Airport or City:

Trip Planner

Search our weather history database for the weather conditions in past years. The results will help you decide how hot, cold, wet, or windy it might be!

Date:

Astronomy

Feb. 16, 2013 Rise Set
Actual Time 7:36 AM CET 6:11 PM CET
Civil Twilight 7:07 AM CET 6:40 PM CET
Nautical Twilight 6:33 AM CET 7:14 PM CET
Astronomical Twilight 6:00 AM CET 7:47 PM CET
Moon 10:26 AM CET (2/16) 12:08 AM CET (2/16)
Length of Visible Light 11h 33m
Length of Day
10h 34m
Waxing Crescent, 37% of the Moon is Illuminated
Feb 16
Waxing Crescent
Feb 17
First Quarter
Feb 25
Full
Mar 4
Last Quarter
Mar 11
New

Hourly Weather History & Observations

Time (CET) Temp. Windchill Dew Point Humidity Pressure Visibility Wind Dir Wind Speed Gust Speed Precip Events Conditions
12:00 AM 42.8 °F 36.2 °F 33.8 °F 70% 30.09 in 6.2 mi NNW 12.7 mph - N/A   Unknown
12:30 AM 42.8 °F 37.5 °F 33.8 °F 70% 30.09 in 6.2 mi NW 9.2 mph - N/A   Unknown
1:00 AM 42.8 °F 34.8 °F 33.8 °F 70% 30.09 in 6.2 mi NNW 17.3 mph - N/A   Unknown
1:30 AM 42.8 °F 34.5 °F 33.8 °F 70% 30.09 in 6.2 mi NNW 18.4 mph - N/A   Unknown
2:00 AM 41.0 °F 35.8 °F 33.8 °F 76% 30.09 in 6.2 mi North 8.1 mph - N/A   Unknown
2:30 AM 41.0 °F 35.8 °F 33.8 °F 76% 30.09 in 6.2 mi North 8.1 mph - N/A   Unknown
3:00 AM 39.2 °F 35.9 °F 33.8 °F 81% 30.09 in 6.2 mi North 4.6 mph - N/A   Unknown
3:30 AM 39.2 °F 35.0 °F 32.0 °F 75% 30.09 in 6.2 mi NNW 5.8 mph - N/A   Unknown
4:00 AM 37.4 °F 32.1 °F 30.2 °F 75% 30.09 in 6.2 mi North 6.9 mph - N/A   Unknown
4:30 AM 33.8 °F - 28.4 °F 81% 30.09 in 6.2 mi Variable 2.3 mph - N/A   Unknown
5:00 AM 33.8 °F - 30.2 °F 87% 30.09 in 6.2 mi Calm Calm - N/A   Unknown
5:30 AM 30.2 °F - 26.6 °F 86% 30.09 in 6.2 mi East 2.3 mph - N/A   Unknown
6:00 AM 30.2 °F - 26.6 °F 86% 30.09 in 6.2 mi Calm Calm - N/A   Unknown
6:30 AM 28.4 °F - 24.8 °F 86% 30.09 in 6.2 mi Calm Calm - N/A   Unknown
7:00 AM 28.4 °F - 26.6 °F 93% 30.09 in 6.2 mi Calm Calm - N/A   Unknown
7:30 AM 26.6 °F - 24.8 °F 93% 30.09 in 6.2 mi Calm Calm - N/A   Unknown
8:00 AM 28.4 °F - 26.6 °F 93% 30.09 in 6.2 mi Calm Calm - N/A   Unknown
8:30 AM 30.2 °F - 28.4 °F 93% 30.12 in 6.2 mi Calm Calm - N/A   Unknown
9:00 AM 33.8 °F - 30.2 °F 87% 30.12 in 6.2 mi Calm Calm - N/A   Unknown
9:30 AM 37.4 °F - 30.2 °F 75% 30.12 in 6.2 mi Calm Calm - N/A   Unknown
10:00 AM 42.8 °F 41.1 °F 32.0 °F 66% 30.12 in 6.2 mi North 3.5 mph - N/A   Unknown
10:30 AM 44.6 °F 39.7 °F 30.2 °F 57% 30.12 in 6.2 mi NNW 9.2 mph - N/A   Unknown
11:00 AM 48.2 °F - 30.2 °F 50% 30.12 in 6.2 mi NNW 6.9 mph - N/A   Unknown
11:30 AM 48.2 °F - 30.2 °F 50% 30.12 in 6.2 mi NNW 10.4 mph - N/A   Unknown
12:00 PM 50.0 °F - 30.2 °F 47% 30.12 in 6.2 mi NW 6.9 mph - N/A   Unknown
12:30 PM 51.8 °F - 32.0 °F 47% 30.12 in 6.2 mi NW 4.6 mph - N/A   Unknown
1:00 PM 53.6 °F - 32.0 °F 44% 30.09 in 6.2 mi Variable 3.5 mph - N/A   Unknown
1:30 PM 55.4 °F - 32.0 °F 41% 30.09 in 6.2 mi NW 3.5 mph - N/A   Unknown
2:00 PM 55.4 °F - 30.2 °F 38% 30.09 in 6.2 mi Variable 2.3 mph - N/A   Unknown
2:30 PM 55.4 °F - 30.2 °F 38% 30.09 in 6.2 mi Variable 3.5 mph - N/A   Unknown
3:00 PM 57.2 °F - 30.2 °F 36% 30.06 in 6.2 mi West 5.8 mph - N/A   Unknown
3:30 PM 57.2 °F - 30.2 °F 36% 30.06 in 6.2 mi WNW 5.8 mph - N/A   Unknown
4:00 PM 57.2 °F - 28.4 °F 33% 30.06 in 6.2 mi WNW 4.6 mph - N/A   Unknown
4:30 PM 57.2 °F - 28.4 °F 33% 30.06 in 6.2 mi Variable 2.3 mph - N/A   Unknown
5:00 PM 55.4 °F - 28.4 °F 36% 30.06 in 6.2 mi NNW 4.6 mph - N/A   Unknown
5:30 PM 53.6 °F - 32.0 °F 44% 30.06 in 6.2 mi NW 5.8 mph - N/A   Unknown
6:00 PM 51.8 °F - 32.0 °F 47% 30.06 in 6.2 mi WNW 4.6 mph - N/A   Unknown
6:30 PM 50.0 °F - 32.0 °F 50% 30.06 in 6.2 mi SSW 4.6 mph - N/A   Unknown
7:00 PM 48.2 °F - 32.0 °F 54% 30.09 in 6.2 mi Calm Calm - N/A   Unknown
7:30 PM 46.4 °F - 32.0 °F 57% 30.09 in 6.2 mi Calm Calm - N/A   Unknown
8:00 PM 46.4 °F 45.2 °F 32.0 °F 57% 30.09 in 6.2 mi NW 3.5 mph - N/A   Unknown
8:30 PM 39.2 °F - 28.4 °F 65% 30.09 in 6.2 mi Calm Calm - N/A   Unknown
9:00 PM 37.4 °F - 30.2 °F 75% 30.09 in 6.2 mi Calm Calm - N/A   Unknown
9:30 PM 35.6 °F - 30.2 °F 81% 30.09 in 6.2 mi Calm Calm - N/A   Unknown
10:00 PM 33.8 °F - 28.4 °F 81% 30.09 in 6.2 mi Calm Calm - N/A   Unknown
10:30 PM 33.8 °F - 28.4 °F 81% 30.09 in 6.2 mi NNW 2.3 mph - N/A   Unknown
11:00 PM 33.8 °F 30.8 °F 28.4 °F 81% 30.09 in 6.2 mi North 3.5 mph - N/A   Unknown
11:30 PM 33.8 °F - 28.4 °F 81% 30.09 in 6.2 mi NNW 2.3 mph - N/A   Unknown